Hourly Data Report for July 18, 2021

VICTORIA INTL A
BRITISH COLUMBIA
Current Station Operator: NAVCAN

48°38'50.000" N
123°25'33.000" W
19.50 m
1018621
71799
YYJ

Download Data

Hourly Data (July 2021)
Hourly Data Report for July 18, 2021
TIME
LST
Temp Definition
°C
Dew Point Definition
°C
Rel Hum Definition
%
Precip. Amount Definition
mm

Wind Dir Definition
10's deg

Wind Spd Definition
km/h
Visibility Definition
km
Stn Press Definition
kPa
Hmdx Definition


Wind Chill Definition


Weather Definition


00:00 16.9 10.5 66   29 23 24.1 101.68     LegendNANA
01:00 15.9 10.5 70   29 15 24.1 101.70     Clear
02:00 15.4 10.4 72   30 16 24.1 101.74     LegendNANA
03:00 14.5 10.7 78   30 11 32.2 101.75     LegendNANA
04:00 13.9 11.2 84   25 10 48.3 101.76     Mainly Clear
05:00 14.0 12.0 88   27 10 48.3 101.81     LegendNANA
06:00 15.2 10.4 73   29 15 48.3 101.83     LegendNANA
07:00 16.2 9.5 64   28 11 48.3 101.86     Mainly Clear
08:00 17.5 9.1 57   28 4 48.3 101.90     LegendNANA
09:00 17.5 10.4 63   11 12 48.3 101.91     LegendNANA
10:00 19.8 10.0 53   8 12 48.3 101.89     Mostly Cloudy
11:00 19.9 10.4 54   11 12 48.3 101.91     LegendNANA
12:00 20.1 9.4 50   12 16 48.3 101.89     LegendNANA
13:00 21.3 8.6 44   12 19 48.3 101.87     Mainly Clear
14:00 21.8 9.6 45   13 15 48.3 101.84     LegendNANA
15:00 22.7 9.8 44   12 13 48.3 101.80     LegendNANA
16:00 22.4 9.7 44   12 12 48.3 101.75     Mainly Clear
17:00 22.4 10.1 45   12 16 48.3 101.72     LegendNANA
18:00 21.7 9.9 46   12 12 48.3 101.66     LegendNANA
19:00 21.0 10.0 49   11 8 48.3 101.64     Clear
20:00 17.9 10.6 62   9 7 48.3 101.63     LegendNANA
21:00 16.3 10.2 67   6 7 48.3 101.64     LegendNANA
22:00 15.8 10.9 72   36 3 24.1 101.68     Clear
23:00 14.6 10.4 76   23 4 24.1 101.67     LegendNANA

Notes on Data Quality.

Legend

  • E = Estimated
  • M = Missing
  • NA = Not Available*
  • [empty] = Indicates an unobserved value
Date modified: